This is the latest recevied weather packets stored in our database for station/object K1TTC. If no packets are shown the sender has not sent any weather packets the latest 10 day(s).
| Time | Temp. | Humidity | Pressure | Rain* | Wind** | Luminosity | Snow |
|---|---|---|---|---|---|---|---|
| 1788541891 | 28.89° C | 49% | 1010.5 hPa | 0 mm | - | 954 W/m² | - |
| 1788541292 | 28.33° C | 49% | 1010.6 hPa | 0 mm | - | 972 W/m² | - |
| 1788540691 | 28.33° C | 50% | 1010.6 hPa | 0 mm | - | 909 W/m² | - |
| 1788540091 | 28.33° C | 50% | 1010.6 hPa | 0 mm | - | 912 W/m² | - |
| 1788539491 | 27.78° C | 51% | 1010.7 hPa | 0 mm | - | 872 W/m² | - |
| 1788539000 | 27.78° C | 54% | 1010.7 hPa | 0 mm | - | 904 W/m² | - |
| 1788538291 | 27.78° C | 54% | 1010.8 hPa | 0 mm | - | 979 W/m² | - |
| 1788537691 | 27.78° C | 54% | 1011 hPa | 0 mm | - | 898 W/m² | - |
| 1788537089 | 27.78° C | 55% | 1011 hPa | 0 mm | - | 858 W/m² | - |
| 1788536588 | 27.22° C | 57% | 1011.3 hPa | 0 mm | - | 803 W/m² | - |
| 1788535889 | 26.67° C | 58% | 1011.3 hPa | 0 mm | - | 788 W/m² | - |
| 1788535289 | 26.67° C | 59% | 1011.4 hPa | 0 mm | - | 775 W/m² | - |
| 1788534688 | 26.11° C | 61% | 1011.5 hPa | 0 mm | - | 780 W/m² | - |
| 1788534092 | 25.56° C | 62% | 1011.4 hPa | 0 mm | - | 763 W/m² | - |
| 1788533489 | 25° C | 65% | 1011.6 hPa | 0 mm | - | 717 W/m² | - |
| 1788532889 | 24.44° C | 68% | 1011.6 hPa | 0 mm | - | 733 W/m² | - |
| 1788532293 | 23.89° C | 70% | 1011.6 hPa | 0 mm | - | 294 W/m² | - |
| 1788531691 | 23.33° C | 73% | 1011.7 hPa | 0 mm | - | 359 W/m² | - |
| 1788531089 | 23.33° C | 78% | 1011.8 hPa | 0 mm | - | 369 W/m² | - |
| 1788530864 | 22.78° C | 84% | 1011.7 hPa | 0 mm | - | 686 W/m² | - |
| 1788530580 | 22.78° C | 84% | 1011.7 hPa | 0 mm | - | 686 W/m² | - |
| 1788529889 | 22.22° C | 89% | 1011.7 hPa | 0 mm | - | 610 W/m² | - |
| 1788529289 | 21.67° C | 91% | 1011.7 hPa | 0 mm | - | 575 W/m² | - |
| 1788528690 | 21.67° C | 91% | 1011.8 hPa | 0 mm | - | 496 W/m² | - |
| 1788528089 | 21.11° C | 91% | 1012 hPa | 0 mm | - | 529 W/m² | - |
* Rain latest hour (hover to see other rain measurements)
** Current wind speed in m/s (hover to see current wind gust speed)